This is the latest recevied weather packets stored in our database for station/object NC4M. If no packets are shown the sender has not sent any weather packets the latest 10 day(s).
| Time | Temp. | Humidity | Pressure | Rain* | Wind** | Luminosity | Snow |
|---|---|---|---|---|---|---|---|
| 1777681757 | 13.89° C | 39% | 1016.3 hPa | 0 mm | - | 14 W/m² | - |
| 1777681455 | 14.44° C | 38% | 1016.3 hPa | 0 mm | - | 16 W/m² | - |
| 1777681152 | 15° C | 35% | 1016.5 hPa | 0 mm | - | 17 W/m² | - |
| 1777680850 | 15° C | 34% | 1016.5 hPa | 0 mm | - | 19 W/m² | - |
| 1777680547 | 15° C | 33% | 1016.4 hPa | 0 mm | - | 20 W/m² | - |
| 1777680246 | 15° C | 38% | 1016.4 hPa | 0 mm | - | 22 W/m² | - |
| 1777679941 | 15° C | 35% | 1016.4 hPa | 0 mm | - | 24 W/m² | - |
| 1777679637 | 15° C | 34% | 1016.2 hPa | 0 mm | - | 30 W/m² | - |
| 1777679332 | 15.56° C | 33% | 1016.2 hPa | 0 mm | - | 26 W/m² | - |
| 1777679029 | 15.56° C | 32% | 1016.1 hPa | 0 mm | - | 28 W/m² | - |
| 1777678728 | 15.56° C | 35% | 1016.1 hPa | 0 mm | - | 30 W/m² | - |
| 1777678425 | 15.56° C | 31% | 1016.4 hPa | 0 mm | - | 31 W/m² | - |
| 1777678120 | 15.56° C | 32% | 1016.4 hPa | 0 mm | - | 32 W/m² | - |
| 1777677818 | 15.56° C | 33% | 1016.2 hPa | 0 mm | - | 34 W/m² | - |
| 1777677516 | 15.56° C | 34% | 1016.3 hPa | 0 mm | - | 34 W/m² | - |
| 1777677213 | 16.11° C | 32% | 1016.4 hPa | 0 mm | - | 39 W/m² | - |
| 1777676911 | 16.11° C | 33% | 1016.4 hPa | 0 mm | - | 35 W/m² | - |
| 1777676610 | 16.11° C | 30% | 1016.5 hPa | 0 mm | - | 36 W/m² | - |
| 1777676307 | 16.11° C | 30% | 1016.3 hPa | 0 mm | - | 37 W/m² | - |
| 1777676005 | 16.11° C | 29% | 1016.6 hPa | 0 mm | - | 41 W/m² | - |
| 1777675701 | 16.11° C | 30% | 1016.4 hPa | 0 mm | - | 57 W/m² | - |
| 1777675398 | 16.11° C | 29% | 1016.4 hPa | 0 mm | - | 95 W/m² | - |
| 1777675094 | 16.11° C | 32% | 1016.2 hPa | 0 mm | - | 72 W/m² | - |
| 1777674790 | 16.11° C | 31% | 1016.2 hPa | 0 mm | - | 67 W/m² | - |
| 1777674487 | 16.11° C | 29% | 1016.2 hPa | 0 mm | - | 167 W/m² | - |
* Rain latest hour (hover to see other rain measurements)
** Current wind speed in m/s (hover to see current wind gust speed)